Location: Moena
(46.3667°N, 11.6500°E)
Time: 05:55:00
(UTC+00:00)

OBJECT-B - Pass Details

Date: 03 March 2021
Orbit: 414 x 427 km, 97.0° (Epoch: 11 April)

Event Time Altitude Azimuth Distance (km) Brightness Sun altitude
Exits shadow 18:05:12 14° 58° (ENE) 1,269 2.7 -11.6°
Drops below altitude 10° 18:06:43 10° 31° (NNE) 1,514 3.3 -11.9°
Sets 18:09:22 0° 6° (N) 2,381 4.6 -12.3°
